Location: Haut Kerinec
(48.0623°N, 4.4081°W)
Time: 22:48:10
(UTC+00:00)

CENTAUR R/B - Pass Details

Date: 01 June 2020
Orbit: 759 x 1428 km, 63.5° (Epoch: 15 June)

Event Time Altitude Azimuth Distance (km) Brightness Sun altitude
Rises 23:02:21 0° 318° (NW) 4,141 7.0 -17.8°
Reaches altitude 10° 23:05:01 10° 316° (NW) 3,254 6.2 -18.0°
Maximum altitude 23:13:00 67° 236° (SW) 1,469 3.3 -18.3°
Enters shadow 23:18:15 27° 162° (SSE) 2,456 4.0 -18.5°
